When you browse on this site, cookies collect data to enhance your experience and personalize the content and advertising you see.
Visit our Privacy Policy to learn more. By continuing to use the site, you agree to this use of cookies and data.
  • Em Portugal
  • Lista de países
  • Para 7 dias
  • Temperatura da água
  • Mapas de satélite
  • Mapa do tempo
  • Widgets de tempo
  • user-avatar
    Iniciar Sessão

    Previsão horária em Selidovo

    Hoje, 13 Dezembro, Quinta-feira

    Tempo Temperatura Precipitação Vento Pressão Humidade
    00:00 -1°C° 0 mm 4 m/s 743 mmHg 85%
    01:00 -2°C° 0 mm 4 m/s 743 mmHg 86%
    02:00 -2°C° 0 mm 4 m/s 743 mmHg 88%
    03:00 -2°C° 0 mm 4 m/s 744 mmHg 88%
    04:00 -2°C° 0 mm 4 m/s 744 mmHg 88%
    05:00 -2°C° 0 mm 4 m/s 745 mmHg 87%
    06:00 -2°C° 0 mm 4 m/s 745 mmHg 87%
    07:00 -2°C° 0 mm 4 m/s 745 mmHg 88%
    08:00 -1°C° 0 mm 3 m/s 746 mmHg 88%
    09:00 -2°C° 0 mm 4 m/s 746 mmHg 85%
    10:00 -1°C° 0 mm 4 m/s 747 mmHg 82%
    11:00 0°C° 0 mm 4 m/s 747 mmHg 80%
    12:00 0°C° 0 mm 4 m/s 747 mmHg 78%
    13:00 0°C° 0 mm 4 m/s 747 mmHg 77%
    14:00 +1°C° 0 mm 3 m/s 747 mmHg 75%
    15:00 +1°C° 0 mm 3 m/s 748 mmHg 76%
    16:00 +2°C° 0 mm 2 m/s 748 mmHg 77%
    17:00 +1°C° 0 mm 2 m/s 749 mmHg 78%
    18:00 +1°C° 0 mm 2 m/s 749 mmHg 80%
    19:00 -1°C° 0 mm 2 m/s 749 mmHg 81%
    20:00 -1°C° 0 mm 2 m/s 749 mmHg 82%
    21:00 -1°C° 0 mm 2 m/s 749 mmHg 83%
    22:00 -1°C° 0 mm 3 m/s 749 mmHg 83%
    23:00 -2°C° 0 mm 3 m/s 749 mmHg 84%

    Amanhã, 14 Dezembro, Sexta-feira

    Tempo Temperatura Precipitação Vento Pressão Humidade
    00:00 -1°C° 0 mm 3 m/s 749 mmHg 85%
    01:00 -1°C° 0 mm 3 m/s 749 mmHg 86%
    02:00 -1°C° 0 mm 3 m/s 749 mmHg 88%
    03:00 -1°C° 0 mm 2 m/s 749 mmHg 89%
    04:00 -2°C° 0 mm 2 m/s 750 mmHg 90%
    05:00 -2°C° 0 mm 2 m/s 750 mmHg 91%
    06:00 -2°C° 0 mm 2 m/s 750 mmHg 90%
    07:00 -2°C° 0 mm 2 m/s 750 mmHg 89%
    08:00 -2°C° 0 mm 2 m/s 750 mmHg 89%
    09:00 +1°C° 0 mm 2 m/s 750 mmHg 84%
    10:00 +2°C° 0 mm 2 m/s 751 mmHg 79%
    11:00 +3°C° 0 mm 2 m/s 751 mmHg 74%
    12:00 +3°C° 0 mm 2 m/s 751 mmHg 74%
    13:00 +3°C° 0 mm 2 m/s 751 mmHg 75%
    14:00 +4°C° 0 mm 1 m/s 751 mmHg 75%
    15:00 +3°C° 0 mm 1 m/s 751 mmHg 79%
    16:00 +2°C° 0 mm 1 m/s 751 mmHg 82%
    17:00 +2°C° 0 mm 1 m/s 752 mmHg 85%
    18:00 +1°C° 0 mm 1 m/s 752 mmHg 86%
    19:00 +1°C° 0 mm 1 m/s 752 mmHg 87%
    20:00 +1°C° 0 mm 1 m/s 752 mmHg 89%
    21:00 +1°C° 0 mm 1 m/s 752 mmHg 90%
    22:00 +1°C° 0 mm 1 m/s 752 mmHg 91%
    23:00 -2°C° 0 mm 2 m/s 752 mmHg 92%

    Depois de amanhã, 15 Dezembro, Sábado

    Tempo Temperatura Precipitação Vento Pressão Humidade
    00:00 -2°C° 0 mm 2 m/s 753 mmHg 93%
    01:00 -2°C° 0 mm 2 m/s 753 mmHg 94%
    02:00 -2°C° 0 mm 2 m/s 753 mmHg 94%
    03:00 -3°C° 0 mm 2 m/s 753 mmHg 94%
    04:00 -3°C° 0 mm 2 m/s 753 mmHg 95%
    05:00 -3°C° 0 mm 2 m/s 753 mmHg 95%
    06:00 -3°C° 0 mm 2 m/s 753 mmHg 94%
    07:00 -1°C° 0 mm 1 m/s 754 mmHg 94%
    08:00 0°C° 0 mm 1 m/s 754 mmHg 93%
    09:00 0°C° 0 mm 1 m/s 754 mmHg 89%
    10:00 +1°C° 0 mm 1 m/s 755 mmHg 86%
    11:00 +1°C° 0 mm 2 m/s 755 mmHg 82%
    12:00 +1°C° 0 mm 2 m/s 755 mmHg 81%
    13:00 +1°C° 0 mm 2 m/s 755 mmHg 79%
    14:00 +1°C° 0 mm 2 m/s 755 mmHg 78%
    15:00 -1°C° 0 mm 2 m/s 755 mmHg 79%
    16:00 -1°C° 0 mm 2 m/s 756 mmHg 81%
    17:00 -2°C° 0 mm 2 m/s 756 mmHg 82%
    18:00 -2°C° 0 mm 2 m/s 756 mmHg 82%
    19:00 -2°C° 0 mm 3 m/s 756 mmHg 83%
    20:00 -4°C° 0 mm 3 m/s 756 mmHg 83%
    21:00 -4°C° 0 mm 3 m/s 757 mmHg 84%
    22:00 -4°C° 0 mm 3 m/s 757 mmHg 85%
    23:00 -5°C° 0 mm 3 m/s 757 mmHg 85%

    16 Dezembro, Domingo

    Tempo Temperatura Precipitação Vento Pressão Humidade
    00:00 -5°C° 0 mm 3 m/s 757 mmHg 85%
    01:00 -4°C° 0 mm 2 m/s 757 mmHg 84%
    02:00 -4°C° 0 mm 2 m/s 757 mmHg 84%
    03:00 -5°C° 0 mm 3 m/s 757 mmHg 84%
    04:00 -5°C° 0 mm 3 m/s 757 mmHg 84%
    05:00 -5°C° 0 mm 3 m/s 757 mmHg 85%
    06:00 -5°C° 0 mm 3 m/s 757 mmHg 84%
    07:00 -5°C° 0 mm 4 m/s 757 mmHg 83%
    08:00 -4°C° 0 mm 4 m/s 757 mmHg 82%
    09:00 -4°C° 0 mm 4 m/s 757 mmHg 80%
    10:00 -5°C° 0 mm 5 m/s 757 mmHg 77%
    11:00 -4°C° 0 mm 5 m/s 757 mmHg 74%
    12:00 -4°C° 0 mm 5 m/s 757 mmHg 74%
    13:00 -4°C° 0 mm 5 m/s 757 mmHg 74%
    14:00 -4°C° 0 mm 5 m/s 757 mmHg 74%
    15:00 -4°C° 0 mm 5 m/s 757 mmHg 75%
    16:00 -5°C° 0 mm 5 m/s 757 mmHg 76%
    17:00 -5°C° 0 mm 5 m/s 757 mmHg 78%
    18:00 -5°C° 0 mm 5 m/s 757 mmHg 78%
    19:00 -5°C° 0 mm 5 m/s 757 mmHg 79%
    20:00 -5°C° 0 mm 5 m/s 757 mmHg 80%
    21:00 -6°C° 0 mm 5 m/s 757 mmHg 80%
    22:00 -6°C° 0 mm 5 m/s 757 mmHg 80%
    23:00 -6°C° 0 mm 5 m/s 757 mmHg 80%

    17 Dezembro, Segunda-feira

    Tempo Temperatura Precipitação Vento Pressão Humidade
    00:00 -6°C° 0 mm 5 m/s 756 mmHg 80%
    01:00 -6°C° 0 mm 5 m/s 756 mmHg 80%
    02:00 -6°C° 0 mm 5 m/s 756 mmHg 80%
    03:00 -6°C° 0 mm 5 m/s 756 mmHg 80%
    04:00 -6°C° 0 mm 5 m/s 756 mmHg 80%
    05:00 -6°C° 0 mm 5 m/s 756 mmHg 80%
    06:00 -6°C° 0 mm 5 m/s 756 mmHg 79%
    07:00 -6°C° 0 mm 6 m/s 756 mmHg 79%
    08:00 -6°C° 0 mm 6 m/s 756 mmHg 79%
    09:00 -6°C° 0 mm 6 m/s 756 mmHg 77%
    10:00 -6°C° 0 mm 6 m/s 756 mmHg 75%
    11:00 -5°C° 0 mm 5 m/s 756 mmHg 73%
    12:00 -5°C° 0 mm 5 m/s 755 mmHg 72%
    13:00 -5°C° 0 mm 5 m/s 755 mmHg 71%
    14:00 -5°C° 0 mm 5 m/s 755 mmHg 71%
    15:00 -6°C° 0 mm 5 m/s 755 mmHg 72%
    16:00 -6°C° 0 mm 5 m/s 755 mmHg 74%
    17:00 -7°C° 0 mm 5 m/s 755 mmHg 76%
    18:00 -7°C° 0 mm 5 m/s 755 mmHg 76%
    19:00 -7°C° 0 mm 5 m/s 755 mmHg 76%
    20:00 -8°C° 0 mm 5 m/s 755 mmHg 76%
    21:00 -8°C° 0 mm 5 m/s 755 mmHg 76%
    22:00 -8°C° 0 mm 5 m/s 755 mmHg 77%
    23:00 -8°C° 0 mm 5 m/s 755 mmHg 77%

    18 Dezembro, Terça-feira

    Tempo Temperatura Precipitação Vento Pressão Humidade
    00:00 -8°C° 0 mm 5 m/s 755 mmHg 77%
    01:00 -8°C° 0 mm 5 m/s 755 mmHg 78%
    02:00 -8°C° 0 mm 5 m/s 755 mmHg 78%
    03:00 -8°C° 0 mm 5 m/s 755 mmHg 79%
    04:00 -8°C° 0 mm 5 m/s 755 mmHg 79%
    05:00 -10°C° 0 mm 5 m/s 755 mmHg 79%
    06:00 -8°C° 0 mm 5 m/s 755 mmHg 80%
    07:00 -8°C° 0 mm 5 m/s 755 mmHg 80%
    08:00 -8°C° 0 mm 5 m/s 756 mmHg 80%
    09:00 -8°C° 0 mm 5 m/s 756 mmHg 78%
    10:00 -7°C° 0 mm 5 m/s 756 mmHg 76%
    11:00 -7°C° 0 mm 5 m/s 756 mmHg 75%
    12:00 -7°C° 0 mm 5 m/s 756 mmHg 75%
    13:00 -5°C° 0 mm 4 m/s 755 mmHg 75%
    14:00 -5°C° 0 mm 4 m/s 755 mmHg 74%
    15:00 -5°C° 0 mm 4 m/s 756 mmHg 76%
    16:00 -5°C° 0 mm 4 m/s 756 mmHg 77%
    17:00 -7°C° 0 mm 4 m/s 756 mmHg 78%
    18:00 -7°C° 0 mm 4 m/s 756 mmHg 78%
    19:00 -7°C° 0 mm 4 m/s 756 mmHg 78%
    20:00 -7°C° 0 mm 4 m/s 756 mmHg 79%
    21:00 -7°C° 0 mm 4 m/s 756 mmHg 79%
    22:00 -7°C° 0 mm 4 m/s 756 mmHg 79%
    23:00 -7°C° 0 mm 4 m/s 756 mmHg 80%
    Mostrar mais